Wetbulb
63.29 63.21 63.02 63.21 63.42 63.47 63.19 62.92 63.03 62.85 62.90 62.82 62.78 62.37 62.31 62.80 62.76 62.53 60.49 56.57 60.07 61.52 61.85 61.79 62.03 62.15 62.14 61.30 60.93 60.95 60.72 59.92 59.26 58.36 57.93 57.59 57.53 57.46 57.38 57.24 57.20 57.26 57.40
63.97 63.37 63.64 63.82 63.76 64.01 63.68 63.58 62.99 62.91 62.90 62.77 62.18 62.09 62.75 63.14 62.57 61.92 61.79 57.60 58.34 57.89 58.28 58.23 58.70 59.33 59.92 60.07 60.07 59.83 59.11 57.87 56.26 55.26 55.07 55.10 55.09 55.22 55.12 55.13 55.26 55.48 55.60
63.90 64.03 64.03 63.90 64.01 63.88 63.48 63.29 63.05 63.07 62.56 62.26 62.07 62.72 63.21 62.72 61.81 60.66 60.64 60.37 57.56 55.36 55.30 55.41 56.79 57.78 58.96 59.01 57.88 56.86 55.96 55.33 54.81 54.44 54.17 53.84 53.87 53.89 53.91 53.84 54.05 54.23 54.54
64.31 63.77 63.80 63.64 64.06 63.94 63.70 63.27 62.80 62.21 62.11 61.94 62.09 62.73 63.14 62.22 60.64 59.95 59.53 58.59 55.95 54.12 54.18 53.86 55.29 56.76 56.25 55.77 54.67 54.36 54.39 54.37 53.83 53.28 52.83 52.54 52.59 52.70 52.83 52.88 53.05 53.29 53.34
64.53 64.18 63.98 64.15 64.11 63.68 63.04 62.12 61.97 61.50 61.18 62.25 61.26 61.32 62.25 60.88 59.52 59.10 57.52 56.40 52.65 52.27 52.30 53.23 53.41 51.91 52.01 52.22 52.85 53.44 53.62 53.14 52.46 51.84 51.57 51.53 51.54 51.84 51.96 52.12 52.18 52.43 52.45
64.30 63.98 64.10 64.56 64.29 63.08 61.63 61.41 61.10 61.37 61.60 60.52 60.15 60.45 60.59 59.96 59.50 58.51 56.35 54.27 49.88 50.63 51.04 51.31 52.43 49.69 48.50 49.12 50.44 51.58 52.24 51.99 51.37 50.79 50.63 50.75 50.77 50.90 51.04 51.28 51.35 51.40 51.48
64.02 62.56 63.11 63.78 64.02 62.38 62.39 62.64 61.39 60.56 59.97 60.81 60.30 60.28 58.35 58.84 58.05 56.99 55.60 51.57 48.97 49.58 49.30 50.13 49.32 48.74 46.70 46.39 47.38 48.60 50.07 50.70 50.33 49.90 49.73 49.69 49.81 50.03 50.23 50.39 50.62 50.49 50.55
63.75 62.53 62.75 62.08 62.92 63.05 62.69 62.04 60.40 59.00 59.51 60.29 58.36 57.59 54.19 54.98 56.13 55.38 53.27 49.04 47.68 48.76 48.25 47.81 46.19 45.30 44.93 43.41 43.58 45.16 47.13 48.52 49.03 48.92 48.70 48.60 48.86 49.25 49.59 49.71 49.61 49.83 50.04
64.55 63.54 62.79 62.88 61.97 62.28 61.59 61.35 60.51 59.06 58.24 58.26 59.19 57.03 53.02 51.96 53.25 54.46 52.25 47.92 46.34 47.10 47.46 46.61 44.41 43.71 42.96 42.52 41.55 41.19 43.89 45.43 46.58 47.05 47.25 47.38 47.87 48.27 48.58 48.91 49.48 50.03 50.43
65.00 64.77 63.57 63.35 62.62 62.30 62.83 63.38 61.38 59.80 58.96 57.18 57.49 56.71 56.80 55.29 51.21 47.31 50.22 47.28 45.16 45.41 46.04 46.01 43.85 42.59 41.79 41.55 40.40 39.87 41.37 42.82 43.51 44.28 44.78 45.63 46.57 47.10 47.75 48.66 49.10 49.14 48.87
65.12 64.63 64.19 63.88 63.79 64.15 63.93 62.87 60.61 58.71 58.85 57.81 56.89 55.37 54.50 53.45 53.18 48.44 43.56 43.85 43.64 45.03 45.44 44.32 42.86 41.50 40.86 40.70 39.10 38.43 40.34 41.42 41.98 42.07 42.66 43.50 44.59 45.53 46.53 47.41 47.89 47.71 47.65
64.79 64.49 63.58 63.59 63.87 63.10 61.16 59.29 58.52 58.11 57.27 57.31 57.19 56.10 52.96 49.76 47.24 45.19 42.87 42.60 40.72 42.32 44.41 44.02 42.06 40.37 40.03 39.85 38.96 37.94 39.33 40.23 41.15 41.13 41.41 41.96 42.74 43.52 44.62 46.30 46.41 46.47 46.84
62.56 62.82 62.69 61.63 60.38 59.57 56.72 55.43 54.67 54.72 54.75 54.72 55.02 52.70 49.47 46.72 46.46 44.19 42.17 40.53 39.35 41.09 42.43 43.45 41.96 39.71 39.09 39.23 38.43 37.34 39.06 38.93 39.92 40.09 40.41 40.86 41.57 42.05 42.76 44.21 44.58 44.85 45.02
61.54 61.78 61.18 59.89 56.91 55.91 53.69 51.78 51.81 51.55 52.64 51.40 48.09 45.71 43.82 43.29 43.82 43.06 41.77 40.09 37.52 38.23 39.85 40.45 41.06 38.97 38.75 38.29 37.65 37.68 38.00 37.38 38.31 38.82 39.59 39.89 40.53 40.96 41.82 42.62 42.96 43.17 43.34
61.85 60.48 58.63 55.17 52.67 50.58 49.95 48.90 47.15 45.70 47.16 46.01 44.35 43.30 41.90 41.78 42.21 41.54 41.22 41.09 39.09 36.06 35.96 38.31 37.45 38.65 38.13 37.98 36.95 36.88 37.14 36.82 37.15 37.41 38.23 38.69 39.32 39.62 40.41 41.30 41.50 41.76 42.29
57.76 56.77 53.43 51.55 49.17 48.31 47.14 46.95 44.90 44.88 43.76 43.11 42.24 40.85 40.25 40.24 40.04 40.35 40.23 39.21 38.56 37.43 35.17 37.52 36.94 36.77 36.93 36.72 37.21 36.92 36.82 36.58 36.69 36.01 36.93 37.37 37.85 38.39 38.74 39.97 40.24 40.20 40.10
54.15 53.11 51.64 48.75 47.99 45.30 45.54 44.23 43.06 42.18 41.26 40.04 40.49 39.21 38.47 39.15 38.35 37.90 38.26 37.77 36.32 37.00 35.44 35.22 36.02 36.48 35.33 35.47 35.87 36.38 36.62 35.60 35.61 35.19 35.77 36.16 36.58 36.73 36.96 37.97 38.57 38.34 38.53
50.56 50.47 48.12 45.73 44.74 43.16 43.11 42.12 40.44 40.35 39.00 37.77 38.06 37.47 36.73 37.30 36.49 36.91 36.65 36.02 36.12 36.06 35.17 32.96 33.84 33.87 33.93 34.85 34.71 34.16 34.84 35.36 34.93 35.08 35.12 35.32 35.32 35.57 35.67 36.40 36.44 36.40 36.60
47.00 46.26 44.13 42.87 41.85 40.98 40.70 40.72 39.26 38.88 38.15 37.73 36.98 36.23 35.54 35.51 34.67 35.05 35.53 35.05 35.45 34.72 34.86 33.17 31.97 33.50 33.51 33.88 32.80 33.63 32.90 33.46 34.82 34.82 34.41 34.63 34.69 34.90 34.93 34.64 35.00 34.53 34.54
44.07 44.26 41.82 41.08 39.98 39.73 39.03 37.85 37.57 37.41 37.20 36.73 36.22 36.19 35.10 35.06 34.63 34.57 34.13 34.40 34.55 33.62 33.04 32.04 31.61 31.75 32.08 32.16 32.45 30.51 29.47 31.36 30.99 33.55 33.29 33.23 34.46 34.36 34.45 33.63 33.40 33.19 33.54
41.04 40.79 37.56 36.06 36.31 37.07 36.76 36.42 36.01 35.87 34.96 34.44 34.78 34.31 34.96 34.51 35.03 35.68 34.04 33.70 33.44 33.31 31.93 31.07 30.68 31.23 30.78 29.57 29.13 29.79 28.65 29.05 29.74 30.09 28.95 29.33 30.63 30.71 30.83 31.60 31.24 32.07 32.93
36.87 35.72 36.06 35.46 35.13 34.39 37.39 37.68 36.25 34.66 33.75 32.90 32.29 32.42 33.28 31.86 33.74 34.18 34.10 35.63 35.13 32.53 29.70 30.93 30.76 29.46 28.91 28.91 30.10 29.06 28.11 26.46 23.98 29.25 26.56 26.69 29.87 28.69 29.72 28.51 30.83 31.84 31.73
35.07 34.65 34.41 34.86 34.14 33.13 37.37 37.24 35.95 34.02 33.08 32.82 32.13 31.55 30.82 31.31 32.05 32.01 33.25 33.32 32.70 33.38 33.47 32.43 30.62 29.96 28.69 29.50 27.95 28.87 28.05 26.49 25.80 28.01 24.63 23.89 28.40 26.83 29.00 29.45 29.98 30.84 30.42
34.09 33.81 34.09 33.99 34.37 33.23 37.12 36.70 34.57 33.43 33.05 32.84 32.32 31.98 30.91 30.79 31.72 31.48 31.38 31.16 31.26 31.21 31.63 32.00 32.05 31.52 31.92 31.54 30.50 30.19 28.35 26.37 26.79 28.50 26.77 21.28 26.31 25.04 26.93 27.71 30.80 29.54 29.35
32.66 32.95 32.95 33.31 33.29 33.40 36.67 35.74 33.78 32.45 31.71 31.60 31.94 32.13 31.52 31.02 32.16 32.93 31.07 30.68 30.74 31.04 33.66 33.84 34.27 34.93 34.04 32.66 31.68 28.56 26.63 25.85 23.84 25.62 25.32 22.96 24.10 23.93 24.24 24.22 26.67 28.91 28.30
32.40 31.33 31.84 33.71 33.06 33.76 36.31 35.52 33.47 32.11 30.99 30.59 31.01 31.37 31.19 31.98 32.84 33.15 31.12 30.70 28.69 29.74 31.22 31.06 30.89 32.00 32.77 30.54 31.10 27.50 27.62 24.90 23.86 23.44 23.49 20.78 22.83 21.83 18.57 23.98 24.09 23.41 22.39
MSLP
1024.56 1024.65 1024.86 1024.90 1024.95 1025.15 1025.15 1025.18 1025.17 1025.14 1025.14 1025.22 1025.23 1025.31 1025.30 1025.36 1025.42 1025.45 1026.02 1026.68 1026.59 1026.31 1026.14 1026.06 1025.77 1025.49 1025.39 1025.32 1025.10 1024.79 1024.66 1024.68 1024.83 1024.88 1024.75 1024.59 1024.17 1023.93 1023.61 1023.21 1022.89 1022.60 1022.23
1024.53 1024.64 1024.82 1024.86 1024.98 1025.06 1025.19 1025.15 1025.13 1025.18 1025.16 1025.19 1025.07 1025.30 1025.31 1025.30 1025.44 1025.63 1025.72 1026.76 1026.98 1026.97 1026.78 1026.64 1026.44 1026.15 1025.85 1025.61 1025.55 1025.61 1025.65 1025.69 1025.66 1025.48 1025.34 1025.11 1024.85 1024.59 1024.20 1023.81 1023.29 1022.90 1022.54
1024.38 1024.47 1024.61 1024.75 1024.88 1025.18 1025.33 1025.36 1025.28 1025.19 1025.10 1025.15 1025.10 1025.07 1025.10 1025.35 1025.53 1025.73 1025.84 1026.07 1026.83 1027.09 1027.23 1027.22 1026.99 1026.67 1026.38 1026.45 1026.52 1026.54 1026.54 1026.35 1026.19 1025.98 1025.79 1025.52 1025.15 1024.81 1024.61 1024.08 1023.58 1022.95 1022.50
1024.23 1024.40 1024.45 1024.60 1024.81 1025.01 1025.05 1024.99 1024.94 1025.03 1025.08 1025.04 1024.99 1024.92 1024.99 1025.35 1025.81 1025.93 1026.23 1026.42 1026.60 1026.65 1027.37 1027.79 1027.57 1027.31 1027.36 1027.39 1027.27 1026.88 1026.70 1026.81 1026.86 1026.54 1026.25 1025.91 1025.63 1025.07 1024.68 1024.35 1023.88 1023.37 1022.81
1024.03 1024.11 1024.30 1024.44 1024.71 1024.77 1024.93 1025.18 1025.17 1025.28 1025.36 1025.22 1025.19 1025.14 1025.11 1025.55 1025.99 1026.20 1026.57 1026.90 1027.30 1027.43 1027.54 1028.21 1028.19 1028.52 1028.53 1028.60 1028.44 1028.01 1027.50 1027.11 1027.01 1027.11 1026.80 1026.33 1025.84 1025.48 1024.93 1024.50 1024.07 1023.54 1022.90
1023.82 1023.98 1024.00 1024.14 1024.46 1024.70 1025.06 1025.16 1025.23 1025.41 1025.54 1025.52 1025.33 1025.21 1025.53 1025.80 1026.00 1026.23 1026.65 1027.00 1027.42 1027.72 1027.99 1028.08 1028.16 1028.71 1028.97 1029.11 1028.91 1028.92 1028.42 1027.95 1027.62 1027.45 1027.23 1026.75 1026.20 1025.72 1025.28 1024.76 1024.20 1023.69 1023.11
1023.56 1023.96 1024.00 1023.72 1024.07 1024.55 1024.65 1024.69 1025.19 1025.44 1025.59 1025.67 1025.39 1025.09 1025.55 1026.00 1026.19 1026.44 1026.78 1027.24 1027.70 1027.98 1028.23 1028.35 1028.67 1028.88 1028.89 1029.07 1029.22 1029.45 1029.12 1028.54 1028.16 1027.81 1027.45 1027.16 1026.58 1025.98 1025.33 1024.90 1024.31 1023.75 1023.19
1023.23 1023.52 1023.69 1023.81 1023.68 1023.81 1024.23 1024.62 1025.04 1025.47 1025.61 1025.81 1025.58 1025.62 1025.50 1025.96 1026.05 1026.45 1026.93 1027.37 1027.84 1028.12 1028.58 1029.01 1029.29 1029.41 1029.47 1029.62 1029.81 1029.89 1029.41 1028.92 1028.60 1028.22 1027.91 1027.33 1026.83 1026.13 1025.56 1025.02 1024.48 1023.78 1023.02
1022.61 1022.95 1023.25 1023.42 1023.64 1023.71 1023.91 1024.18 1024.43 1024.66 1025.11 1025.60 1025.65 1025.81 1025.87 1025.73 1026.22 1026.80 1027.20 1027.55 1027.82 1028.16 1028.48 1028.95 1029.39 1029.67 1029.77 1029.95 1030.32 1030.49 1029.98 1029.42 1029.00 1028.57 1028.25 1027.65 1027.04 1026.43 1025.80 1025.15 1024.38 1023.54 1022.86
1021.53 1022.04 1022.58 1022.88 1023.20 1023.42 1023.58 1023.64 1024.10 1024.38 1024.67 1025.06 1025.50 1025.71 1026.00 1026.18 1026.34 1026.81 1027.32 1027.79 1028.25 1028.54 1028.90 1029.40 1029.68 1029.73 1029.93 1030.14 1030.52 1030.47 1030.52 1029.87 1029.33 1028.84 1028.54 1028.05 1027.39 1026.73 1026.03 1025.32 1024.59 1023.95 1023.46
1020.95 1021.18 1021.56 1022.04 1022.50 1022.65 1022.70 1023.22 1023.92 1024.41 1024.79 1025.09 1025.32 1025.66 1026.21 1026.51 1026.51 1026.74 1027.06 1027.78 1028.27 1028.63 1028.98 1029.39 1030.00 1030.12 1030.10 1030.06 1030.45 1030.53 1030.21 1030.04 1029.52 1029.10 1028.82 1028.22 1027.66 1027.15 1026.54 1025.87 1025.24 1024.68 1023.84
1020.26 1020.53 1020.78 1021.31 1021.64 1022.10 1022.59 1023.09 1023.58 1024.03 1024.48 1024.69 1024.81 1025.27 1025.70 1026.01 1026.46 1026.90 1027.39 1027.87 1028.33 1028.83 1029.30 1029.59 1029.99 1030.31 1030.28 1030.23 1030.39 1030.62 1030.09 1030.12 1029.71 1029.33 1028.95 1028.44 1028.10 1027.64 1027.11 1026.37 1025.72 1024.89 1024.40
1019.64 1020.02 1020.20 1020.63 1021.04 1021.79 1022.32 1022.82 1023.46 1024.07 1024.38 1024.72 1024.93 1025.39 1025.77 1026.18 1026.23 1026.71 1027.32 1028.09 1028.70 1028.87 1029.13 1029.78 1030.22 1030.55 1030.56 1030.45 1030.52 1030.67 1030.07 1030.25 1030.00 1029.66 1029.28 1028.92 1028.51 1027.93 1027.45 1026.75 1026.15 1025.55 1024.74
1018.64 1018.83 1019.68 1020.33 1020.81 1021.44 1022.24 1023.00 1023.42 1023.94 1024.18 1024.71 1025.26 1025.96 1026.30 1026.66 1026.99 1027.15 1027.46 1028.18 1028.93 1029.16 1029.26 1029.47 1030.16 1030.55 1030.63 1030.45 1030.52 1030.45 1030.00 1030.22 1030.14 1029.94 1029.62 1029.11 1028.76 1028.38 1027.76 1027.15 1026.61 1026.09 1025.33
1018.04 1018.49 1019.22 1020.02 1020.76 1021.25 1021.89 1022.63 1023.47 1024.18 1024.55 1025.02 1025.59 1026.01 1026.72 1027.29 1027.59 1028.02 1028.12 1028.30 1028.35 1028.75 1028.89 1029.61 1029.99 1030.49 1030.73 1030.66 1030.62 1030.49 1030.25 1030.48 1030.27 1030.03 1029.88 1029.28 1028.95 1028.55 1028.07 1027.32 1026.94 1026.43 1025.79
1017.63 1018.58 1019.33 1019.93 1020.58 1021.43 1022.04 1022.14 1023.16 1023.88 1024.53 1025.27 1025.95 1026.35 1026.87 1027.37 1027.90 1028.48 1028.69 1028.86 1028.74 1028.64 1028.72 1029.19 1029.76 1030.33 1030.54 1030.56 1030.46 1030.31 1030.16 1030.20 1030.05 1029.95 1029.90 1029.39 1028.98 1028.64 1028.27 1027.55 1027.08 1026.72 1026.19
1017.61 1018.75 1019.37 1019.66 1020.42 1021.02 1021.75 1022.53 1022.91 1023.72 1024.12 1025.24 1025.93 1026.32 1027.12 1027.55 1028.02 1028.45 1028.80 1029.07 1029.08 1029.07 1029.06 1029.61 1030.07 1030.18 1030.35 1030.34 1030.30 1030.25 1030.06 1030.08 1029.92 1029.74 1029.67 1029.19 1028.86 1028.66 1028.35 1027.92 1027.48 1027.10 1026.55
1017.50 1018.32 1019.06 1019.82 1020.09 1020.93 1021.56 1022.23 1022.63 1023.30 1024.01 1024.83 1025.59 1026.10 1026.92 1027.52 1028.10 1028.56 1028.57 1028.93 1029.23 1029.12 1029.29 1029.70 1029.92 1030.19 1030.46 1030.44 1030.43 1030.35 1029.99 1029.95 1029.80 1029.50 1029.41 1028.97 1028.71 1028.68 1028.45 1028.10 1027.79 1027.50 1027.04
1017.47 1018.21 1018.88 1019.36 1020.11 1020.60 1021.42 1021.83 1022.64 1023.03 1023.80 1024.46 1025.30 1025.95 1026.56 1027.31 1027.69 1028.32 1028.63 1028.90 1029.21 1029.19 1029.58 1029.96 1029.88 1029.88 1030.23 1030.17 1030.35 1030.05 1030.01 1029.83 1029.58 1029.27 1029.08 1028.65 1028.55 1028.47 1028.49 1028.21 1027.78 1027.59 1027.15
1017.20 1017.85 1018.44 1018.88 1019.55 1020.13 1021.24 1021.77 1022.18 1022.91 1023.76 1024.37 1025.04 1025.68 1026.26 1026.92 1027.48 1027.74 1028.28 1028.77 1028.96 1029.28 1029.72 1030.02 1029.99 1029.92 1030.04 1029.99 1030.06 1030.09 1029.87 1029.74 1029.50 1028.95 1028.73 1028.56 1028.27 1028.36 1028.23 1028.29 1028.16 1027.75 1027.17
1016.99 1017.64 1018.52 1019.08 1019.33 1020.07 1020.65 1021.55 1021.89 1022.47 1023.35 1024.26 1025.19 1025.72 1026.08 1026.66 1027.08 1027.28 1027.92 1028.72 1028.84 1029.08 1029.68 1029.92 1029.81 1029.89 1029.76 1029.88 1030.08 1030.29 1030.15 1029.81 1029.30 1028.90 1028.84 1028.64 1028.32 1028.42 1028.22 1028.25 1028.23 1027.69 1027.35
1017.01 1017.79 1018.26 1018.81 1019.08 1019.52 1020.13 1021.08 1021.16 1022.12 1023.26 1024.02 1024.80 1025.76 1026.15 1026.88 1027.13 1027.46 1027.90 1028.23 1028.35 1028.82 1029.33 1029.63 1029.46 1029.68 1029.62 1029.66 1029.94 1030.27 1030.07 1030.00 1029.67 1029.35 1029.16 1028.71 1028.46 1028.32 1028.13 1028.16 1028.25 1027.76 1027.47
1017.13 1017.69 1018.20 1018.37 1018.99 1019.15 1020.18 1020.79 1021.05 1022.13 1022.95 1023.82 1024.54 1025.45 1026.26 1026.59 1026.95 1027.31 1027.90 1028.19 1028.44 1028.73 1028.85 1029.34 1029.51 1029.41 1029.47 1029.60 1030.04 1029.97 1029.89 1030.02 1029.81 1029.31 1029.58 1028.98 1028.19 1028.09 1027.97 1027.97 1027.88 1027.72 1027.60
1016.76 1017.31 1017.79 1018.33 1018.59 1019.03 1019.93 1020.78 1021.39 1022.32 1023.03 1023.81 1024.39 1024.99 1025.49 1025.99 1026.52 1027.20 1027.76 1027.98 1028.14 1028.47 1028.77 1029.10 1029.15 1029.07 1029.24 1029.44 1029.75 1029.74 1029.89 1029.96 1029.79 1029.13 1029.56 1029.35 1028.19 1028.19 1027.91 1027.68 1027.67 1027.85 1027.57
1017.37 1017.50 1017.85 1018.39 1018.78 1019.43 1019.99 1020.70 1021.38 1022.26 1022.89 1023.53 1024.27 1024.61 1025.06 1025.69 1026.12 1026.64 1027.36 1027.59 1027.79 1028.18 1028.38 1028.56 1028.58 1028.71 1028.79 1028.90 1029.19 1029.60 1029.64 1029.63 1029.35 1029.06 1029.44 1029.37 1028.47 1028.19 1027.96 1027.63 1027.65 1027.59 1027.53
1017.61 1017.98 1018.43 1018.76 1018.95 1019.44 1020.03 1020.51 1021.04 1022.06 1022.80 1023.57 1024.28 1024.72 1025.07 1025.29 1025.88 1026.23 1026.74 1027.12 1027.31 1027.63 1028.16 1028.37 1028.46 1028.37 1028.37 1028.72 1028.92 1029.21 1029.13 1029.10 1029.21 1029.04 1029.20 1029.31 1028.78 1028.75 1028.38 1027.49 1027.58 1027.41 1027.42
Wind_Speed
4 4 3 3 3 2 2 2 2 2 2 3 3 4 4 5 5 3 6 12 12 16 17 17 17 17 18 18 18 19 20 21 23 24 24 24 24 24 25 25 25 26 26
4 4 4 3 3 2 2 1 1 1 1 1 2 3 3 4 5 5 4 8 13 17 18 18 18 18 17 18 21 23 24 24 23 22 22 23 23 24 24 24 24 25 26
5 4 4 3 3 2 1 1 2 1 1 0 1 0 1 4 4 5 5 5 9 14 18 19 18 18 19 23 23 23 22 22 22 23 23 24 24 25 26 26 26 26 26
6 5 4 4 3 3 3 2 1 2 1 1 2 3 3 3 4 6 6 6 6 4 13 17 18 21 21 22 22 22 22 23 23 23 24 24 24 25 25 26 27 27 28
8 6 4 4 5 4 3 2 2 1 2 3 2 3 2 3 4 5 6 7 7 7 6 15 20 19 21 23 24 24 23 23 23 23 23 24 24 25 26 27 27 28 29
10 7 5 6 6 4 5 4 3 2 2 3 3 2 3 4 3 4 6 7 6 7 7 7 5 9 17 21 23 25 24 23 23 23 23 24 25 25 26 27 28 29 30
10 7 4 5 6 6 6 6 3 3 3 3 3 0 5 3 3 4 4 6 6 7 7 7 6 6 6 18 21 22 22 22 22 22 23 24 25 26 27 28 29 29 30
9 7 7 6 6 6 6 6 6 2 1 1 1 1 2 3 4 4 4 5 6 5 6 9 8 8 7 7 11 20 21 22 22 23 24 24 25 26 28 28 29 30 31
10 10 10 7 6 3 5 8 8 7 4 2 2 2 2 2 2 4 4 4 5 4 5 7 7 7 7 7 9 14 21 21 22 23 24 25 25 27 27 28 30 31 32
14 12 11 10 8 7 8 7 6 3 3 5 2 1 1 2 2 3 3 4 4 5 5 4 5 7 8 6 12 16 18 20 21 22 23 24 25 26 27 28 29 29 29
11 12 12 11 10 8 8 6 7 5 3 3 3 3 3 2 2 2 3 4 4 4 4 5 5 5 7 6 7 10 16 19 20 21 21 23 23 24 25 25 26 28 29
8 11 11 9 9 7 7 6 5 6 5 4 3 4 4 3 4 2 1 2 1 3 4 3 4 4 5 5 8 13 15 18 18 19 20 21 21 21 22 23 25 26 28
8 11 12 9 6 6 7 7 6 5 5 4 5 4 3 3 2 2 2 2 1 2 2 4 3 4 5 5 6 12 11 17 17 17 18 18 19 19 20 21 24 25 27
10 12 10 9 9 9 8 7 5 4 5 5 7 5 5 4 3 2 2 4 2 2 3 3 3 3 4 4 6 12 6 14 13 14 16 16 18 17 18 21 23 25 27
9 10 11 10 9 9 10 10 6 6 6 6 7 7 6 4 4 3 2 1 2 4 5 3 1 4 2 2 3 6 5 9 9 11 14 15 16 16 18 20 22 24 25
9 10 10 10 11 9 9 11 8 9 8 6 5 7 6 5 5 3 3 2 0 1 2 1 2 1 2 3 2 4 5 7 6 8 12 12 13 15 17 19 20 22 24
10 10 11 11 12 12 11 9 9 10 11 9 7 8 7 7 5 5 3 3 2 1 1 3 1 2 2 2 4 4 3 4 4 5 9 10 12 13 15 18 20 22 24
8 10 11 10 12 11 11 11 12 11 12 11 10 9 9 6 7 6 5 5 3 2 1 4 2 1 1 2 3 4 3 4 3 5 8 10 9 10 13 16 18 20 23
9 8 10 11 12 12 11 10 10 12 11 11 10 9 10 9 8 6 5 4 3 3 2 2 2 2 2 1 3 2 3 3 3 4 7 9 9 10 11 14 15 18 21
11 11 11 11 12 12 11 10 12 11 10 9 9 8 10 9 9 9 6 5 4 3 2 2 2 2 2 1 2 1 3 2 4 1 4 9 8 9 10 11 13 16 20
9 10 10 7 9 9 9 12 12 12 12 10 7 7 8 8 11 9 6 5 5 5 3 3 2 2 2 1 1 1 2 4 6 1 2 3 3 3 3 6 9 14 18
8 9 11 11 13 8 15 18 15 12 11 11 11 8 8 8 8 9 6 8 7 5 3 3 2 2 3 2 1 1 3 3 3 3 3 6 4 2 2 2 9 14 16
9 10 10 12 11 9 19 19 17 10 11 10 10 10 8 6 8 7 10 9 7 8 7 4 4 3 1 2 1 4 4 4 5 3 2 4 2 2 2 2 5 11 14
11 11 11 11 11 9 21 18 15 10 8 9 10 10 10 10 9 8 7 7 6 5 5 4 5 3 2 3 3 1 3 5 6 4 4 3 2 3 2 3 6 8 12
6 7 7 8 9 8 19 19 14 9 9 9 9 10 10 9 14 15 8 7 5 5 7 10 10 11 10 7 5 1 4 4 4 1 3 1 2 3 2 2 1 6 10
3 3 3 4 5 9 17 20 14 7 8 7 6 5 9 9 15 17 9 7 7 6 5 4 4 6 8 5 8 4 4 6 5 4 2 1 2 2 4 1 2 1 1
Wind_Direction
164 165 151 166 138 158 155 144 119 103 91 52 42 26 20 22 20 28 87 63 43 45 42 37 35 33 34 30 29 31 29 27 25 19 15 9 8 5 2 359 354 351 348
165 166 167 167 159 184 164 189 58 49 55 54 51 39 19 25 42 34 65 89 69 56 48 43 40 41 42 42 38 34 30 25 21 17 14 11 8 4 1 358 355 351 347
179 185 183 176 165 170 203 203 206 217 252 112 64 203 359 55 49 69 68 79 114 77 61 48 46 47 49 44 38 34 27 22 19 17 13 9 6 2 358 355 351 349 345
191 197 183 189 180 193 213 207 217 284 263 303 325 349 17 80 90 81 71 59 51 66 79 65 53 53 51 45 35 29 26 22 17 15 12 8 3 2 359 355 351 349 346
191 190 198 202 186 207 196 220 229 231 302 302 360 352 37 89 123 91 79 83 55 46 59 91 75 59 49 38 29 25 26 24 20 14 10 8 6 3 360 356 353 350 348
194 201 204 203 201 193 212 204 211 234 348 332 310 311 62 115 94 103 105 87 67 59 61 52 75 86 53 37 32 24 21 21 19 16 11 9 7 3 360 357 355 351 348
189 198 212 223 191 205 211 213 195 211 196 250 270 213 131 145 101 110 93 78 70 72 64 68 54 38 43 38 35 24 19 19 17 16 13 10 7 5 2 359 357 352 348
193 194 205 210 221 204 204 202 187 167 111 295 284 191 210 161 149 100 88 73 74 78 72 65 59 50 37 46 37 23 18 19 17 16 13 11 8 6 4 1 356 353 350
199 197 206 205 206 197 203 198 198 182 160 169 249 299 236 232 139 135 107 76 78 84 97 98 76 58 43 53 34 21 15 19 18 17 14 11 8 6 4 2 1 356 356
199 202 210 205 203 201 221 199 190 168 152 171 145 136 58 355 236 161 146 109 97 94 73 76 62 59 42 42 43 23 14 19 18 17 14 9 8 6 4 5 3 5 5
208 201 199 198 211 217 224 174 169 167 179 153 201 150 179 196 211 248 162 148 134 103 95 85 66 46 38 44 49 13 17 18 17 16 12 9 7 5 6 2 2 360 2
199 201 194 196 199 182 167 159 148 157 166 194 176 178 179 171 174 155 170 141 112 108 98 92 69 45 39 30 48 6 17 17 14 14 10 7 4 5 0 0 0 3 0
196 203 194 190 170 163 147 141 143 148 169 178 167 153 92 71 75 103 104 83 297 121 153 97 74 42 24 25 33 356 14 17 9 9 5 3 2 2 359 358 360 1 3
207 193 188 184 157 153 145 137 142 137 150 144 134 127 123 115 101 101 134 139 165 258 219 83 118 48 14 21 41 337 5 22 3 7 2 3 3 1 353 2 2 0 2
204 181 177 162 153 148 152 143 139 146 143 136 128 129 123 109 96 95 112 216 244 172 197 156 158 105 22 354 46 334 355 348 1 5 359 4 6 2 0 356 2 2 2
155 172 172 160 150 151 156 150 148 155 140 132 134 132 128 138 133 132 145 145 247 321 151 72 139 96 23 329 33 340 348 315 15 2 354 3 8 5 1 359 3 360 359
162 180 180 162 162 158 161 158 150 150 139 141 150 146 147 151 148 149 148 146 141 206 213 110 158 144 289 348 341 344 323 319 340 356 344 3 8 2 359 358 359 358 357
170 176 165 162 160 161 164 162 160 156 149 153 157 151 157 154 154 157 152 168 177 158 176 190 175 153 266 326 329 302 340 329 304 348 344 359 1 353 350 352 355 356 353
164 164 167 164 172 163 165 160 159 153 156 157 160 161 156 164 159 158 160 161 175 166 169 194 197 155 224 193 289 290 319 296 315 333 343 355 352 355 343 345 347 352 349
167 174 176 171 166 167 162 159 156 151 154 155 157 161 161 167 164 162 163 172 160 145 179 207 211 213 200 160 240 337 310 317 313 269 354 348 333 330 344 345 344 345 349
171 167 156 145 143 167 159 167 158 154 153 147 150 147 158 162 162 160 153 175 171 171 182 207 224 220 212 66 295 283 300 324 300 32 353 319 328 304 329 352 323 341 346
152 156 166 165 169 165 167 176 155 152 152 153 154 156 158 152 151 148 171 181 185 174 182 210 218 212 217 188 182 299 302 319 319 84 14 314 282 272 284 74 315 340 345
161 173 174 172 177 158 170 169 153 152 153 157 157 157 155 164 157 161 185 189 199 215 219 225 243 219 211 177 196 270 279 284 279 310 41 292 275 288 282 203 306 331 345
178 180 183 187 175 169 169 161 144 145 146 157 163 166 163 163 174 170 179 196 193 201 220 227 240 200 210 196 209 291 300 290 291 257 132 266 357 283 298 265 300 322 341
182 185 175 172 168 156 166 159 145 146 154 158 165 169 169 171 179 181 190 191 204 215 228 233 240 238 241 253 221 197 259 261 297 272 168 236 284 305 275 277 82 304 339
170 123 135 146 150 151 170 169 156 154 156 156 151 155 169 168 183 192 195 201 209 212 205 229 251 254 244 233 233 227 238 244 260 284 92 230 349 13 319 61 253 155 346